TimeEST,TemperatureF,Dew PointF,Humidity,Sea Level PressureIn,VisibilityMPH,Wind Direction,Wind SpeedMPH,Gust SpeedMPH,PrecipitationIn,Events,Conditions,WindDirDegrees,DateUTC
12:56 AM,33.1,25.0,72,30.12,10.0,SW,8.1,-,N/A,,Overcast,230,2013-01-06 05:56:00
1:56 AM,33.1,25.0,72,30.11,10.0,SW,8.1,-,N/A,,Overcast,230,2013-01-06 06:56:00
3:56 AM,33.1,26.1,75,30.08,10.0,SW,11.5,-,N/A,,Overcast,220,2013-01-06 08:56:00
4:56 AM,32.0,26.1,79,30.07,10.0,SSW,6.9,-,N/A,,Overcast,210,2013-01-06 09:56:00
5:56 AM,32.0,25.0,75,30.04,10.0,SW,10.4,-,N/A,,Overcast,220,2013-01-06 10:56:00
6:56 AM,32.0,26.1,79,30.04,9.0,SW,9.2,-,N/A,,Overcast,230,2013-01-06 11:56:00
7:04 AM,33.8,26.6,75,30.01,9.0,SW,11.5,-,N/A,,Overcast,230,2013-01-06 12:04:00
7:15 AM,33.8,26.6,75,30.00,10.0,SW,10.4,-,N/A,,Overcast,220,2013-01-06 12:15:00
7:56 AM,33.1,26.1,75,30.04,10.0,SW,10.4,-,N/A,,Overcast,220,2013-01-06 12:56:00
8:56 AM,33.1,26.1,75,30.05,9.0,SW,11.5,-,N/A,,Overcast,220,2013-01-06 13:56:00
9:56 AM,34.0,27.0,75,30.04,9.0,SSW,10.4,-,N/A,,Overcast,210,2013-01-06 14:56:00
10:56 AM,35.1,28.0,76,30.04,9.0,SW,13.8,-,N/A,,Overcast,230,2013-01-06 15:56:00
11:56 AM,35.1,28.0,76,30.02,9.0,WSW,12.7,-,N/A,,Overcast,240,2013-01-06 16:56:00
12:03 PM,35.6,28.4,75,29.98,9.0,WSW,13.8,-,N/A,,Overcast,240,2013-01-06 17:03:00
12:56 PM,35.1,28.0,76,29.99,8.0,WSW,12.7,-,N/A,,Overcast,240,2013-01-06 17:56:00
1:56 PM,35.1,28.9,78,29.99,8.0,WSW,10.4,-,0.00,,Overcast,240,2013-01-06 18:56:00
2:56 PM,35.1,28.9,78,30.01,7.0,WSW,9.2,-,0.00,,Overcast,240,2013-01-06 19:56:00
4:25 PM,33.8,30.2,87,30.01,5.0,WSW,12.7,-,0.00,Rain,Light Rain,250,2013-01-06 21:25:00
4:35 PM,33.8,30.2,87,30.02,5.0,West,15.0,20.7,0.00,,Overcast,260,2013-01-06 21:35:00
4:56 PM,34.0,30.9,89,30.06,4.0,West,9.2,-,0.00,,Overcast,280,2013-01-06 21:56:00
5:03 PM,33.8,30.2,87,30.03,4.0,West,8.1,-,N/A,,Overcast,270,2013-01-06 22:03:00
5:26 PM,33.8,30.2,87,30.04,6.0,West,9.2,-,0.00,,Overcast,270,2013-01-06 22:26:00
5:33 PM,33.8,30.2,87,30.04,7.0,West,11.5,-,0.00,,Overcast,280,2013-01-06 22:33:00
5:42 PM,33.8,30.2,87,30.05,7.0,WNW,10.4,-,0.00,,Overcast,290,2013-01-06 22:42:00
5:56 PM,33.1,28.9,85,30.09,4.0,WNW,17.3,-,0.00,,Overcast,290,2013-01-06 22:56:00
6:09 PM,32.0,30.2,93,30.07,4.0,WNW,16.1,-,0.00,,Overcast,290,2013-01-06 23:09:00
6:16 PM,32.0,28.4,87,30.07,5.0,WNW,18.4,-,0.00,,Overcast,290,2013-01-06 23:16:00
7:56 PM,30.0,25.0,82,30.17,6.0,WNW,15.0,-,N/A,,Haze,290,2013-01-07 00:56:00
8:56 PM,28.9,25.0,85,30.19,5.0,WNW,17.3,-,N/A,,Overcast,290,2013-01-07 01:56:00
9:16 PM,28.4,24.8,86,30.16,5.0,WNW,12.7,-,N/A,,Overcast,290,2013-01-07 02:16:00
9:56 PM,28.9,24.1,82,30.22,5.0,WNW,13.8,-,N/A,,Haze,290,2013-01-07 02:56:00
10:56 PM,28.0,24.1,85,30.25,5.0,West,11.5,-,N/A,,Overcast,280,2013-01-07 03:56:00
11:39 PM,28.4,23.0,80,30.24,4.0,West,12.7,-,N/A,,Haze,280,2013-01-07 04:39:00
11:56 PM,27.0,24.1,89,30.28,4.0,West,9.2,-,N/A,,Overcast,280,2013-01-07 04:56:00